Grizzly Air Cargo 5116


PAJN
Juneau International Airport
Juneau, Alaska, US
PAFA
Fairbanks International Airport
Fairbanks, Alaska, US

Activity Log

Date Flight Route Aircraft Duration
12/17/2019 GRZ5116 JNU5 SSR J502 RDFLG HRDNG2 B722 1h 40m
08/16/2019 GRZ506 JNU5 SSR J502 RDFLG HRDNG2 B722 1h 44m
06/25/2019 GRZ506 JNU5 SSR J502 RDFLG HRDNG2 B722 1h 42m
06/24/2019 GRZ506 JNU5 SSR J502 RDFLG HRDNG2 B722 1h 50m
03/21/2019 GRZ506 JNU5 SSR J502 RDFLG HRDNG2 B722 1h 33m

Route Details

Aircraft Information
Primary: Boeing 727-200F
Backup: Boeing 737-800BCF
Route Data
Distance: 574nm
Sched. Duration: 2h 00m
Avg. Duration: 1h 42m (-58m)
Times Flown: 5
Recm'd Route: JNU5 SSR J502 RDFLG HRDNG2
Planned Altitude: 34,000ft
Origin Wx: PAJN 200153Z 12014KT 10SM FEW011 SCT038 OVC047 04/01 A3005 RMK AO2 SLP176 T00390011
Dest. Wx: PAFA 200215Z 00000KT 2SM -SN BR BKN025 OVC035 M06/M08 A3012 RMK AO2 TWR VIS 2 1/2 P0001 T10561083 $
Notes:

Financial History
Total Freight: 191,106lbs
Average Load: 38,221lbs/flt
Fuel Used: 69,827lbs
Avg. Fuel Used: 13,965lbs/flt
Fuel Expense: $74,715
Avg. Fuel Expense: $14,943
Avg. Fuel Cost: $1.07/lbs
Total Gross Income: $421,018
Pilot Pay: $905
Total Expenses: $45,730
Total Revenue: $298,769
Average Revenue: $84,203.54